Погода в Романовке

Погода в Романовке : погода сейчас, прогноз погоды и архив. Всё, что Вы хотите узнать о погоде в Романовке!

Поиск расширенной информации на нашем сайте:

Другие новости

Новости СМИ2

Главная страница сайта

Новости сайта

03.07.2017

Напоминаем, что на нашем специализированном сайте Метеоцентр.Азия вы можете получить высокодетализированные автоматические прогнозы погоды по пунктам России, СНГ и мира в авиационном формате (включающие направление и скорость ветра, видимость, явления погоды, количество и форму облачности, нижнюю и верхнюю границу облачности).


Погода в Романовке - сегодня

Время (UTC), дата Ветер
(°,м/с) 
Видим.   Явления Облачность Т
(°С)
Тd
(°С)
f(%) Тe
(°С)
Pmin
(гПа)
dP
(гПа)
Po
(мм)
O2
(г/м3)
Тmin Tmax R s Состояние
почвы
18 20.11.17 230 (ЮЗ) н/о    ясно 
-13.1 -15.6 81 -17  1015.6  -0.1  676  287           
21 20.11.17 230 (ЮЗ) н/о    3/0 верхняя 
[Ci fib]
-13.3 -16.5 77 -18  1015.2  -0.4  676  287           
00 21.11.17 тихо ()   20000 м    6/0 средняя, верхняя 
[Ac lent|Ci fib]
-16.7 -18.7 84 -17  1017.8  0.9  676  292  -18.1      равномерный
сухой снег
100% 
03 21.11.17 340 (С) 20000 м    10/0 средняя, верхняя 
[Ac lent|Ci fib]
-9.5 -15.8 60 -11  1014.4  -0.4  676  283           
06 21.11.17 340 (С) 20000 м    10/1 600 м кучево-дожд., средняя 
[Cb cap|Ac und]
-9.6 -18.8 47 -11  1015.6  0.9  677  284           
09 21.11.17 тихо ()   н/о    10/0 средняя 
[Ac und]
-11.4 -21 45 -11  1017  0.5  677  286           
12 21.11.17 300 (СЗ) н/о    10/0 средняя 
[Ac und]
-13.9 -20.5 57 -14  1020.5  2.5  679  290    -5.6       
15 21.11.17 280 (З) н/о    3/0 средняя 
[Ac lent]
-17.9 -23.3 63 -18  1023  0.6  679  294           
18 21.11.17 тихо ()   н/о    3/0 верхняя 
[Ci fib]
-24.4 -27.1 78 -24  1026.8  0.4  680  302           
21 21.11.17 тихо ()   н/о    10/0 верхняя 
[Ci fib]
-23.8 -27 75 -24  1026.4  -0.1  680  302           
00 22.11.17 тихо ()   20000 м    1/0 средняя 
[Ac lent]
-26.3 -29.8 72 -26  1028.3  0.5  680  305  -26.3      равномерный
сухой снег
100% 
03 22.11.17 тихо ()   20000 м    ясно 
-17.3 -24.1 55 -17  1024.3  0.5  680  294  -26.5         
06 22.11.17 350 (С) 20000 м    1/0 средняя 
[Ac lent]
-13.2 -26.7 31 -15  1021.4  -0.9  680  289           
09 22.11.17 320 (СЗ) н/о    3/0 средняя, верхняя 
[Ac lent|Ci fib]
-15.1 -27.2 35 -17  1021.9  -0.7  679  291           
12 22.11.17 240 (ЮЗ) н/о    3/0 средняя 
[Ac lent]
-21.6 -29.2 50 -25  1025.9  1.1  680  299    -13       
15 22.11.17 тихо ()   н/о    ясно 
-26.2 -31.1 63 -26  1028.7  0.4  680  305           
18 22.11.17 тихо ()   н/о    ясно 
-29.2 -32.8 71 -29  1030.8  0.5  681  309           
21 22.11.17 тихо ()   н/о    ясно 
-31.3 -35 70 -31  1032.1  0.2  681  312           
00 23.11.17 тихо ()   20000 м    ясно 
-32.3 -36.2 68 -32  1033.4  0.6  681  313  -32.5      равномерный
сухой снег
100% 
03 23.11.17 тихо ()   20000 м    3/0 средняя, верхняя 
[Ac lent|Ci fib]
-24.6 -30.4 59 -25  1029.7  0.3  681  303  -32.6         
06 23.11.17 170 (Ю) 20000 м    3/0 средняя 
[Ac lent]
-13.7 -23.6 43 -14  1023.3  -0.9  681  290           
09 23.11.17 140 (ЮВ) н/о    1/0 верхняя 
[Ci fib]
-17.3 -25.5 49 -17  1025.3  0.3  681  294           
12 23.11.17 тихо ()   н/о    ясно 
-23.6 -27.8 68 -24  1028.6  0.2  681  302    -12.9       
15 23.11.17 тихо ()   н/о    ясно 
-27.7 -30.8 75 -28  1030.2  -0.5  681  307           
18 23.11.17 тихо ()   н/о    3/0 верхняя 
[Ci fib]
-29.5 -33.2 70 -30  1030.6  -0.4  680  309           
Время (UTC), дата Ветер
(°,м/с) 
Видим.   Явления Облачность Т
(°С)
Тd
(°С)
f(%) Тe
(°С)
Pmin
(гПа)
dP
(гПа)
Po
(мм)
O2
(г/м3)
Тmin Tmax R s Состояние
почвы

Для получения пояснительной информации подведите курсор к названию столбца.

ПОГОДА в Романовке - архив

Всё, что Вы хотите узнать о погоде в Романовке - удобно и подробно!

Выберите нужную дату (начиная с 1 января 2015* года) и нажмите кнопку "Найти".
Будут отображены архивные сводки погоды по пункту Романовка, начиная с указанной даты.


Отображать данные в формате CSV (для использования в таблицах Excel)


Внимание! Наш архив погоды предназначен исключительно для личного некоммерческого использования в познавательных целях. Если Вам необходимы официальные справки о состоянии погоды (для производственных, юридических, коммерческих и т.п. целей), обращайтесь в органы Росгидромета.

*Примечание: данная дата относится к архиву по метеостанциям СССР (Россия, СНГ, Балтия).
Архив по метеостанциям Зарубежной Европы и Азии (кроме Китая) хранится 10 дней, по другим регионам земного шара (Китай, Африка, Америка, Австралия, Океания) - 1 день.

Романовка - район местоположения метеостанции


Название, широта, долгота, высота метеостанции:
Романовка 53.2°ш. 112.8°д. 923 м над ур. моря [Российская Федерация]

Дополнительная информация

В oтличие oт бoльшинства пoгoдных сайтoв мы публикуем пoдрoбную метеoинфoрмацию в детальнoм прoфессиoнальнoм фoрмате.

Характеристики температуры и влажнoсти вoздуха измеряются на высoте 2 м в тени вдали oт зданий и деревьев.
Скoрoсть ветра измеряется на высoте 10 м (на урoвне рoста челoвека скoрoсть ветра ниже в 1.5-2 раза). Если метеoстанция нахoдится в гoрoде или в лесу, тo скoрoсть ветра занижена на 2-4 м/с пo сравнению с oткрытым местoм. Скoрoсть ветра над акватoриями крупных рек и oзёр, а также на вершинах хoлмoв на 2-5 м/с выше, чем в oбычных услoвиях.
Атмoсфернoе давление в разных тoчках местнoсти мoжет значительнo oтличаться oт давления на метеoстанции, в зависимoсти oт услoвий рельефа (при пoдъёме на 10 м давление пoнижается примернo на 1 мм рт.ст.).